Location: Siloam Springs
(36.1880°N, 94.5400°W)
Time: 18:38:11
(UTC-05:00)

ISS - Visible Passes

Search period start: 20 May 2018 00:00
Search period end: 30 May 2018 00:00
Orbit: 402 x 407 km, 51.6° (Epoch: 21 May)

Date Brightness Start Highest point End Pass type
(mag) Time Alt. Az. Time Alt. Az. Time Alt. Az.
20 May -0.5 04:02:09 10° N 04:04:07 15° NNE 04:06:03 10° ENE visible
20 May -3.1 22:15:36 10° WSW 22:18:47 52° NW 22:22:00 10° NE visible
20 May -0.1 23:55:22 10° NNW 23:55:53 10° NNW 23:56:23 10° NNW visible
21 May -0.1 03:11:18 10° NNE 03:11:38 10° NNE 03:11:59 10° NNE visible
21 May -2.9 04:45:33 10° NW 04:48:45 51° NE 04:51:56 10° ESE visible
21 May -4.0 21:23:22 10° SW 21:26:37 72° SE 21:29:52 10° NE visible
21 May -0.6 23:01:27 10° WNW 23:03:25 15° NNW 23:05:24 10° N visible
22 May -1.6 03:53:37 10° NNW 03:56:29 27° NNE 03:59:20 10° E visible
22 May -2.8 05:30:09 10° WNW 05:32:54 25° SW 05:35:38 10° S visible
22 May -1.2 22:08:20 10° W 22:11:01 23° NNW 22:13:43 10° NNE visible
23 May -0.8 03:01:52 10° NNW 03:04:07 17° NNE 03:06:22 10° ENE visible
23 May -3.8 04:37:38 10° WNW 04:40:49 54° SW 04:44:00 10° SSE visible
23 May -2.3 21:15:35 10° WSW 21:18:42 41° NW 21:21:49 10° NE visible
24 May -0.5 22:01:45 10° NW 22:03:22 13° NNW 22:04:59 10° N visible
25 May -0.8 21:08:25 10° W 21:10:54 20° NNW 21:13:23 10° NNE visible
27 May -0.5 21:02:04 10° NW 21:03:13 11° NNW 21:04:21 10° N visible
